Location: Tierra del Sol
(32.6128°N, 116.3319°W)
Time: 19:45:43
(UTC-07:00)

Vanguard 2 - Pass Details

Date: 03 May 2018
Orbit: 554 x 2938 km, 32.9° (Epoch: 18 September)

Event Time Altitude Azimuth Distance (km) Brightness Sun altitude
Rises 18:05:11 0° 233° (SW) 6,716 13.0 16.1°
Reaches altitude 10° 18:09:41 10° 230° (SW) 5,757 12.7 15.2°
Maximum altitude 18:27:09 62° 155° (SSE) 2,883 10.4 11.6°
Drops below altitude 10° 18:40:15 10° 79° (E) 4,464 10.9 8.9°
Sets 18:43:15 0° 76° (ENE) 5,188 11.2 8.3°
